Weather in Malinovo

Russia / Primorsky Krai     45°24′17″N   134°18′16″E
temp.,
°C
wind,
m/s
gust,
m/s
humid.,
%
clouds,
%
prec.,
mm/h
press.,
hPa
HPBL,
m
10 may, mon
mon1001:00+7nw1395100 0.1 1003133
04:00+7nw1297100 0.9 100581
07:00+7nnw1297100 0.3 1007175
10:00+9nw2387100 0.6 1008610
13:00+9nnw3482100 0.4 1009725
16:00+9nnw3580100 0.7 1010793
19:00+8nnw2485100 0.3 1011320
22:00+7nw1187100 0.4 101326
11 may, tue
tue1101:00+6nw1189100 0.0 101311
04:00+5nnw119190 0.1 101410
07:00+6nnw118852 0.0 101682
10:00+11n245655 0.0 10171393
13:00+12nnw3358100 0.2 10171262
16:00+13wnw125498 0.5 10161569
19:00+11nw117572 0.3 101721
22:00+7s11895 0.3 101910
12 may, wed
wed1201:00+5sse119423 0.0 101914
04:00+4sse2294100 0.0 101833
07:00+6sse2487100 0.0 1018114
10:00+13sse4856100 0.0 1015866
13:00+15s41049100 0.0 10141497
16:00+17ssw51346100 0.0 10112386
19:00+10sw61383100 1.4 10131268
22:00+8ssw51390100 3.7 10141043
13 may, thu
thu1301:00+7ssw412901 0.0 1013579
04:00+5s26946 0.2 1012174
07:00+6s379274 0.0 1013233
10:00+14ssw36624 0.0 1012737
13:00+20wsw57440 0.0 10101335
16:00+20wsw58400 0.0 10102017
19:00+18wsw485497 0.0 1010505
22:00+12sw2279100 0.0 101131
14 may, fri
fri1401:00+12s2377100 0.0 101161
04:00+9ssw22885 0.0 101131
07:00+10sse23725 0.0 101280
10:00+19s243719 0.0 1010724
13:00+23ssw4826100 0.0 10082475
16:00+22ssw5933100 0.0 10051930
19:00+19ssw41050100 0.0 1004604
22:00+16s51169100 0.3 1005805